Regional Weather Roundup
Issued by NWS

Home | Current Version | Previous Version | Text Only | Print | Product List | Glossary Off
Versions: 1 2 3 4 5 6 7 8 9 10 11 12 13 14 15 16 17 18 19 20 21 22 23 24 25 26 27 28 29 30 31 32 33 34 35 36 37 38 39 40 41 42 43 44 45 46 47 48 49 50

000
ASUS43 KLOT 012306
RWRIL

ILLINOIS REGIONAL WEATHER ROUNDUP
NATIONAL WEATHER SERVICE CHICAGO/ROMEOVILLE IL
600 PM CDT MON SEP 01 2014

NOTE: "FAIR" INDICATES FEW OR NO CLOUDS BELOW 12,000 FEET WITH NO
SIGNIFICANT WEATHER AND/OR OBSTRUCTIONS TO VISIBILITY.

* THESE STATIONS ARE NOT UNDER NWS QUALITY CONTROL. THEY ALSO MAY NOT
  REPORT WEATHER SUCH AS PRECIPITATION OR FOG.

ILZ001-002-007-009-015-016-024-020000-
NORTHWEST ILLINOIS

CITY           SKY/WX    TMP DP  RH WIND       PRES   REMARKS
MOLINE         SUNNY     80  66  62 SW10G22   29.80R HX  82
STERLING*      MOSUNNY   81  68  65 W14       29.79S HX  83
SAVANNA*       MOSUNNY   80  64  56 W12G20    29.77S HX  82
$$

ILZ003-004-008-010-011-017-018-020000-
NORTH CENTRAL ILLINOIS

CITY           SKY/WX    TMP DP  RH WIND       PRES   REMARKS
ROCKFORD       PTSUNNY   79  65  62 SW15      29.78R HX  81
FREEPORT*      SUNNY     78  67  68 W12G21    29.79S HX  80
ROCHELLE*      MOSUNNY   77  65  66 SW14G20   29.80R
DE KALB*       MOSUNNY   77  65  67 SW14G21   29.80S
PERU*          MOSUNNY   80  66  62 SW13G21   29.82R HX  82
$$

ILZ005-006-012>014-019>023-020000-
NORTHEAST ILLINOIS

CITY           SKY/WX    TMP DP  RH WIND       PRES   REMARKS
CHICAGO-OHARE  MOSUNNY   81  63  54 SW16G25   29.77R HX  82
CHICAGO-MIDWAY PTSUNNY   83  67  58 SW21      29.78R HX  85
AURORA         SUNNY     80  65  59 SW16G23   29.79S HX  82
LANSING*         N/A    N/A N/A N/A MISG        N/A
JOLIET*        SUNNY     80  63  54 SW10G20   29.81S HX  81
WAUKEGAN       MOSUNNY   80  65  59 SW14G21   29.75R HX  82
DUPAGE AIRPORT SUNNY     80  65  59 SW13G25   29.78S HX  82
KANKAKEE*      SUNNY     80  68  67 SW10      29.83R HX  82
WHEELING       MOSUNNY   82  63  52 SW15G25   29.78R HX  83
MORRIS*        MOSUNNY   81  67  62 SW10G17   29.81R HX  83
ROMEOVILLE*    MOSUNNY   79  64  59 SW13      29.80R HX  81
NORTHERLY ISL    N/A     82  62  50 S10         N/A  HX  83
$$

LMZ740>746-020000-
SOUTHERN LAKE MICHIGAN

STATION/POSITION SKY/WX   TEMP    WIND        PRES    VSBY  WAVE
                          AIR SEA DIR/SP/G                  HT/PER
                          (F)     (DEG/KT/KT) (MB)    (MI)  (FT/S)
SOUTHERN BUOY              73 70  220/ 10/ 10 1007.1R         2/ 3
WAUKEGAN HARBOR            80     240/ 17/ 21   N/A
HARRISON CRIB              80     230/ 16/ 23   N/A
BURNHAM HARBOR             81     240/ 14/ 15   N/A
CALUMET HARBOR             81     220/  8/ 15 1007.3R
MICHIGAN CITY              78     220/ 18/ 20   N/A
MICHIGAN CITY 6N           77 72  240/ 12/ 16   N/A           2/ 3
ST. JOSEPH                 74 72  230/ 10/ 14   N/A           2/ 4
$$

ILZ025>027-034>036-040-047-049-050-058-095>099-020000-
WEST-CENTRAL ILLINOIS

CITY           SKY/WX    TMP DP  RH WIND       PRES   REMARKS
QUINCY         MOSUNNY   79  67  66 SW7       29.87S HX  81
GALESBURG*     SUNNY     79  68  68 SW13G18   29.84S HX  82
MACOMB*        SUNNY     78  66  66 W10       29.87S HX  80
JACKSONVILLE*  MOSUNNY   82  68  62 SW10      29.89R HX  84
PITTSFIELD*    MOSUNNY   82  67  60 SW8       29.89S HX  84
$$

ILZ028>032-037-038-041>044-048-051>054-059>061-020000-
CENTRAL ILLINOIS

CITY           SKY/WX    TMP DP  RH WIND       PRES   REMARKS
PONTIAC        MOSUNNY   81  68  65 SW9       29.83R HX  83
DECATUR        MOSUNNY   81  65  58 SW13      29.88R HX  83
PEORIA         MOSUNNY   81  66  60 SW13      29.84S HX  83
LACON*         SUNNY     79  65  62 SW12G17   29.82S HX  81
LINCOLN*       SUNNY     83  65  54 SW5       29.84R HX  84
SPRINGFIELD    SUNNY     83  66  56 SW8       29.87R HX  85
TAYLORVILLE    SUNNY     79  66  65 SW12      29.88S HX  81
$$

ILZ033-039-045-046-055>057-062-063-020000-
EAST-CENTRAL ILLINOIS

CITY           SKY/WX    TMP DP  RH WIND       PRES   REMARKS
CHAMPAIGN      MOSUNNY   79  65  62 SW12      29.88R HX  81
DANVILLE*      MOSUNNY   78  65  65 W13G18    29.84R HAZE    HX  80
MATTOON        PTSUNNY   80  66  62 SW9       29.89R HX  82
PARIS*         MOSUNNY   80  67  64 SW5       29.89R HX  82
$$

ILZ079-100>102-020000-
SOUTHWEST ILLINOIS

CITY           SKY/WX    TMP DP  RH WIND       PRES   REMARKS
BELLEVILLE     MOSUNNY   83  70  65 E5        29.91R HX  87
CAHOKIA*       SUNNY     85  67  54 VRB3      29.90S HX  87
SPARTA*        MOSUNNY   81  68  63 SW6       29.94R HX  84
$$

ILZ064>066-069>071-074>076-080>082-084>086-088>090-092>094-020000-
SOUTH-CENTRAL ILLINOIS

CITY           SKY/WX    TMP DP  RH WIND       PRES   REMARKS
CARBONDALE     MOSUNNY   82  70  66 SW8       29.93S HX  86
CAIRO*         MOSUNNY   87  71  59 SW12G18   29.93S HX  92
EFFINGHAM*     PTSUNNY   81  64  55 SW9       29.91R HX  83
MARION         MOSUNNY   82  72  69 SW9       29.95R HX  87
MT. VERNON     MOSUNNY   82  68  61 SW10      29.93S HX  85
CENTRALIA*     MOSUNNY   81  66  61 S8        29.93R HX  83
SALEM*         MOSUNNY   82  70  66 SW8       29.93R HX  86
METROPOLIS*    PTSUNNY   84  73  69 SW6       29.94S HX  91
$$

ILZ067-068-072-073-078-083-087-091-020000-
SOUTHEAST ILLINOIS

CITY           SKY/WX    TMP DP  RH WIND       PRES   REMARKS
LAWRENCEVILLE  MOSUNNY   81  71  71 SW8       29.91S HX  85
FAIRFIELD*     PTSUNNY   82  73  74 SW7       29.92S HX  88
HARRISBURG*    PTSUNNY   82  70  66 W7        29.95S HX  86
ROBINSON*      MOSUNNY   80  71  73 SW7       29.91S HX  83
CARMI*         PTSUNNY   85  73  65 SW7       29.93R HX  91
$$

ABBREVIATIONS USED IN REMARKS
   TC - TEMPERATURE IN CELSIUS
  WCI - WIND CHILL INDEX
   HX - HEAT INDEX
  VSB - VISIBILITY
$$



USA.gov is the U.S. government's official web portal to all federal, state and local government web resources and services.